GLO1104 SBSP-SBCT

Flight info

Callsign GLO1104
Flight time 0h 37m
Altitude 26000
Route SOVSI UZ85 RAXIT
Aircraft B738/M-SDE2E3FGHIRWXY/LB1

Departure

Time 2026-05-04 16:22
Airport Congonhas–Deputado Freitas Nobre Airport (SBSP)

Arrival

Time 2026-05-04 16:59
Airport Curitiba-Afonso Pena International Airport (SBCT)
Time Latitude Longitude Altitude Speed Heading
2026-05-04 16:12 -23.62509 -46.65963 2599 ft 0 kts 237°
2026-05-04 16:13 -23.62501 -46.65949 2599 ft 4 kts 252°
2026-05-04 16:13 -23.62515 -46.65907 2600 ft 1 kts 327°
2026-05-04 16:14 -23.62518 -46.65905 2600 ft 0 kts 327°
2026-05-04 16:16 -23.62482 -46.65930 2600 ft 9 kts 327°
2026-05-04 16:17 -23.62370 -46.65959 2599 ft 9 kts 327°
2026-05-04 16:18 -23.62219 -46.66056 2597 ft 9 kts 336°
2026-05-04 16:18 -23.62161 -46.66096 2596 ft 11 kts 326°
2026-05-04 16:19 -23.62123 -46.66123 2597 ft 0 kts 327°
2026-05-04 16:19 -23.62120 -46.66125 2597 ft 2 kts 327°
2026-05-04 16:20 -23.62055 -46.66071 2595 ft 0 kts 145°
2026-05-04 16:21 -23.62768 -46.65575 2607 ft 136 kts 147°
2026-05-04 16:22 -23.64686 -46.64221 3826 ft 173 kts 146°
2026-05-04 16:22 -23.68733 -46.64257 5361 ft 240 kts 188°
2026-05-04 16:23 -23.74337 -46.64860 7004 ft 286 kts 192°
2026-05-04 16:24 -23.77722 -46.71554 8259 ft 285 kts 263°
2026-05-04 16:25 -23.79619 -46.75319 10322 ft 289 kts 236°
2026-05-04 16:26 -23.84924 -46.83478 12352 ft 351 kts 237°
2026-05-04 16:26 -23.88755 -46.90325 14796 ft 357 kts 246°
2026-05-04 16:27 -23.90663 -46.95382 16294 ft 362 kts 248°
2026-05-04 16:28 -23.93535 -47.03098 18360 ft 369 kts 248°
2026-05-04 16:28 -23.96553 -47.10960 20188 ft 379 kts 247°
2026-05-04 16:29 -24.00704 -47.21713 22359 ft 391 kts 247°
2026-05-04 16:30 -24.03868 -47.29925 24333 ft 386 kts 246°
2026-05-04 16:31 -24.05934 -47.35299 25754 ft 380 kts 246°
2026-05-04 16:31 -24.08977 -47.43231 26222 ft 377 kts 246°
2026-05-04 16:32 -24.14042 -47.49762 26234 ft 399 kts 215°
2026-05-04 16:33 -24.18873 -47.53056 26245 ft 419 kts 214°
2026-05-04 16:33 -24.23916 -47.56494 26236 ft 434 kts 214°
2026-05-04 16:34 -24.25995 -47.57925 26230 ft 438 kts 214°
2026-05-04 16:35 -24.27946 -47.59274 26234 ft 442 kts 214°
2026-05-04 16:35 -24.35852 -47.64758 26220 ft 453 kts 214°
2026-05-04 16:36 -24.38520 -47.66610 26229 ft 454 kts 214°
2026-05-04 16:36 -24.43752 -47.70510 26226 ft 454 kts 222°
2026-05-04 16:37 -24.48375 -47.75227 26228 ft 454 kts 225°
2026-05-04 16:37 -24.50644 -47.77643 26230 ft 454 kts 225°
2026-05-04 16:37 -24.55204 -47.82437 26228 ft 454 kts 225°
2026-05-04 16:38 -24.59805 -47.87178 26231 ft 453 kts 224°
2026-05-04 16:39 -24.66721 -47.94254 26234 ft 453 kts 224°
2026-05-04 16:39 -24.71217 -47.98856 26213 ft 421 kts 224°
2026-05-04 16:40 -24.75301 -48.03044 26214 ft 382 kts 224°
2026-05-04 16:40 -24.79049 -48.06895 25961 ft 362 kts 225°
2026-05-04 16:41 -24.82670 -48.10620 25237 ft 353 kts 224°
2026-05-04 16:41 -24.87953 -48.16059 23955 ft 345 kts 224°
2026-05-04 16:42 -24.93150 -48.21415 22688 ft 337 kts 224°
2026-05-04 16:43 -24.96564 -48.24933 21826 ft 334 kts 225°
2026-05-04 16:43 -24.99954 -48.28434 20833 ft 335 kts 225°
2026-05-04 16:43 -25.01652 -48.30186 20401 ft 333 kts 225°
2026-05-04 16:44 -25.08344 -48.37097 18736 ft 325 kts 225°
2026-05-04 16:45 -25.11633 -48.40496 17925 ft 322 kts 225°
2026-05-04 16:46 -25.16246 -48.45765 16705 ft 316 kts 229°
2026-05-04 16:46 -25.19196 -48.49317 15942 ft 312 kts 229°
2026-05-04 16:47 -25.22123 -48.52805 15178 ft 308 kts 229°
2026-05-04 16:47 -25.25031 -48.56261 14388 ft 306 kts 229°
2026-05-04 16:48 -25.29384 -48.61443 13185 ft 306 kts 230°
2026-05-04 16:48 -25.30824 -48.63158 12810 ft 304 kts 229°
2026-05-04 16:49 -25.33684 -48.66564 12065 ft 300 kts 230°
2026-05-04 16:49 -25.36036 -48.69371 11440 ft 299 kts 230°
2026-05-04 16:50 -25.38851 -48.72733 10704 ft 297 kts 230°
2026-05-04 16:50 -25.41569 -48.75978 10436 ft 279 kts 230°
2026-05-04 16:51 -25.44141 -48.79052 10115 ft 267 kts 230°
2026-05-04 16:51 -25.45805 -48.81044 9738 ft 266 kts 230°
2026-05-04 16:51 -25.47906 -48.83559 9243 ft 265 kts 230°
2026-05-04 16:52 -25.50435 -48.86591 8452 ft 272 kts 230°
2026-05-04 16:52 -25.51708 -48.88116 8106 ft 274 kts 230°
2026-05-04 16:53 -25.54290 -48.91210 7518 ft 273 kts 230°
2026-05-04 16:53 -25.58096 -48.95776 7021 ft 264 kts 229°
2026-05-04 16:54 -25.59384 -48.97211 6760 ft 261 kts 226°
2026-05-04 16:55 -25.64372 -49.02840 5804 ft 247 kts 250°
2026-05-04 16:55 -25.63580 -49.05954 5543 ft 208 kts 321°
2026-05-04 16:56 -25.61522 -49.07958 5181 ft 190 kts 318°
2026-05-04 16:56 -25.58793 -49.10946 4440 ft 177 kts 315°
2026-05-04 16:57 -25.57940 -49.11899 4209 ft 172 kts 315°
2026-05-04 16:57 -25.56382 -49.13635 3792 ft 146 kts 316°
2026-05-04 16:58 -25.54263 -49.15997 3211 ft 144 kts 316°
2026-05-04 16:58 -25.53556 -49.16787 3032 ft 144 kts 315°
2026-05-04 16:59 -25.52535 -49.17927 2990 ft 31 kts 314°
2026-05-04 17:00 -25.52751 -49.17996 2985 ft 13 kts 178°
2026-05-04 17:00 -25.52972 -49.17861 2984 ft 12 kts 112°
2026-05-04 17:01 -25.52982 -49.17676 2986 ft 12 kts 97°
2026-05-04 17:01 -25.53089 -49.17532 2991 ft 13 kts 135°
2026-05-04 17:02 -25.53212 -49.17395 2992 ft 12 kts 135°
2026-05-04 17:02 -25.53328 -49.17264 2992 ft 12 kts 135°
2026-05-04 17:03 -25.53384 -49.17201 2990 ft 11 kts 134°
2026-05-04 17:03 -25.53434 -49.17145 2990 ft 6 kts 134°
2026-05-04 17:03 -25.53514 -49.17160 2990 ft 7 kts 184°
2026-05-04 17:04 -25.53589 -49.17091 2990 ft 7 kts 135°
2026-05-04 17:04 -25.53655 -49.17044 2991 ft 5 kts 216°
2026-05-04 17:05 -25.53690 -49.17080 2992 ft 2 kts 225°
2026-05-04 17:05 -25.53692 -49.17082 2992 ft 0 kts 225°